Location: Antioch Church
(34.9543°N, 88.5145°W)
Time: 10:47:54
(UTC+00:00)

Cosmos 1603 - Pass Details

Date: 11 December 2019
Orbit: 830 x 860 km, 71.0° (Epoch: 27 January)

Event Time Altitude Azimuth Distance (km) Brightness Sun altitude
Exits shadow 10:58:22 24° 344° (NNW) 1,722 5.0 -22.5°
Maximum altitude 11:02:00 79° 69° (ENE) 873 3.8 -21.8°
Drops below altitude 10° 11:07:41 10° 156° (SSE) 2,467 6.6 -20.7°
Sets 11:10:06 0° 157° (SSE) 3,394 7.4 -20.2°
